This demonstration page uses our WeatherBlox Daily Observations layout. Learn more.

39.08367, -84.50855

Hourly Observations for January 17, 2019

Temp ( °F °C ) Dew Point ( °F °C ) Humidity (%) Winds ( mph kmh ) Pressure ( in mb ) Visibility ( mi km ) Precip ( " mm )
12:53 am 00:53 Cloudy 33 0.6 30 -1.1 89 89 Calm 30.27 1025 8 12.874752 0 0
1:53 am 01:53 Cloudy 34 1.1 29 -1.7 82 82 Calm 30.27 1025 10 16.09344 0 0
2:53 am 02:53 Cloudy 34 1.1 30 -1.1 85 85 Calm 30.27 1025 10 16.09344 0 0
3:24 am 03:24 Cloudy 34 1.1 30 -1.1 85 85 NNE 3 6 30.27 1025 10 16.09344 0 0
3:53 am 03:53 Cloudy 34 1.1 30 -1.1 85 85 Calm 30.24 1024 10 16.09344 0 0
4:53 am 04:53 Cloudy 35 1.7 30 -1.1 82 82 Calm 30.21 1023 10 16.09344 0 0
5:53 am 05:53 Cloudy 34 1.1 30 -1.1 85 85 Calm 30.21 1023 9 14.484096 0 0
6:53 am 06:53 Cloudy 34 1.1 31 -0.6 89 89 Calm 30.18 1022 9 14.484096 0 0
7:30 am 07:30 Cloudy with Light Rain 35 1.7 31 -0.6 85 85 Calm 30.18 1022 8 12.874752 0.001 0.001
7:53 am 07:53 Cloudy with Light Rain 35 1.7 31 -0.6 85 85 Calm 30.18 1022 5 8.04672 0.01 0.254
8:53 am 08:53 Cloudy with Light Rain 35 1.7 32 0 89 89 ENE 3 6 30.15 1021 4 6.437376 0.05 1.27
9:37 am 09:37 Cloudy 35 1.7 33 0.6 93 93 Calm 30.15 1021 7 11.265408 0.001 0.001
9:53 am 09:53 Cloudy with Mist and Fog 36 2.2 32 0 86 86 VRB 3 6 30.15 1021 6 9.656064 0.001 0.001
10:53 am 10:53 Cloudy 36 2.2 33 0.6 89 89 S 7 11 30.15 1021 8 12.874752 0.001 0.001
11:53 am 11:53 Cloudy with Light Rain 37 2.8 34 1.1 89 89 Calm 30.12 1020 8 12.874752 0.01 0.254
12:53 pm 12:53 Cloudy with Light Rain 38 3.3 35 1.7 89 89 VRB 3 6 30.09 1019 6 9.656064 0.001 0.001
1:01 pm 13:01 Cloudy with Light Rain 38 3.3 35 1.7 89 89 Calm 30.09 1019 6 9.656064 0.01 0.254
1:53 pm 13:53 Cloudy with Light Rain 39 3.9 36 2.2 89 89 Calm 30.03 1017 5 8.04672 0.03 0.762
2:41 pm 14:41 Cloudy with Light Rain 40 4.4 37 2.8 89 89 Calm 30 1016 6 9.656064 0.01 0.254
2:53 pm 14:53 Cloudy with Light Rain 39 3.9 37 2.8 93 93 Calm 30 1016 2 3.218688 0.01 0.254
2:56 pm 14:56 Cloudy with Light Rain 39 3.9 37 2.8 93 93 Calm 30.03 1017 1.75 2.816352 0.001 0.001
2:59 pm 14:59 Cloudy with Light Rain 39 3.9 37 2.8 93 93 S 3 6 30 1016 1.75 2.816352 0.001 0.001
3:06 pm 15:06 Cloudy with Mist and Fog 39 3.9 37 2.8 93 93 SSW 3 6 30 1016 1.5 2.414016 0.01 0.254
3:53 pm 15:53 Cloudy with Light Rain 39 3.9 38 3.3 96 96 Calm 30 1016 1.25 2.01168 0.02 0.508
4:37 pm 16:37 Cloudy with Mist and Fog 39 3.9 38 3.3 96 96 Calm 30 1016 2 3.218688 0.01 0.254
4:53 pm 16:53 Cloudy with Mist and Fog 39 3.9 38 3.3 96 96 S 3 6 30 1016 2 3.218688 0.01 0.254
5:53 pm 17:53 Cloudy with Mist and Fog 39 3.9 38 3.3 96 96 SW 6 9 30 1016 2.5 4.02336 0.001 0.001
6:53 pm 18:53 Cloudy with Mist and Fog 39 3.9 38 3.3 96 96 W 3 6 30 1016 2 3.218688 0.01 0.254
7:53 pm 19:53 Cloudy with Mist and Fog 39 3.9 38 3.3 96 96 WSW 3 6 30 1016 2 3.218688 0 0
8:01 pm 20:01 Cloudy with Mist and Fog 39 3.9 38 3.3 96 96 SW 3 6 30 1016 1.75 2.816352 0 0
8:15 pm 20:15 Cloudy with Mist and Fog 39 3.9 38 3.3 96 96 WSW 3 6 30 1016 2.5 4.02336 0 0
8:53 pm 20:53 Cloudy with Mist and Fog 39 3.9 39 3.9 100 100 WSW 5 7 30 1016 2.5 4.02336 0 0
9:34 pm 21:34 Cloudy with Mist and Fog 40 4.4 39 3.9 97 97 WSW 6 9 30.03 1017 4 6.437376 0.01 0.254
9:43 pm 21:43 Cloudy 41 5 39 3.9 93 93 W 8 13 30.03 1017 7 11.265408 0.01 0.254
9:53 pm 21:53 Cloudy with Mist and Fog 41 5 39 3.9 93 93 WSW 7 11 30.03 1017 5 8.04672 0.01 0.254
10:31 pm 22:31 Cloudy 41 5 38 3.3 89 89 W 10 17 30.03 1017 10 16.09344 0 0
10:53 pm 22:53 Cloudy 40 4.4 37 2.8 89 89 VRB 5 7 30.03 1017 10 16.09344 0 0
11:02 pm 23:02 Cloudy 40 4.4 37 2.8 89 89 WNW 3 6 30.06 1018 10 16.09344 0 0
11:53 pm 23:53 Cloudy 39 3.9 36 2.2 89 89 W 7 11 30.06 1018 10 16.09344 0 0

Powered by AerisWeather